Regional Weather Roundup
Issued by NWS Grand Forks, ND

Home | Current Version | Previous Version | Graphics & Text | Print | Product List | Glossary On
Versions: 1 2 3 4 5 6 7 8 9 10 11 12 13 14 15 16 17 18 19 20 21 22 23 24 25 26 27 28 29 30 31 32 33 34 35 36 37 38 39 40 41 42 43 44 45 46 47 48 49 50
596
ASUS43 KFGF 210231
RWRFGF
PRAIRIE TO PINES  WEATHER ROUNDUP
NATIONAL WEATHER SERVICE EASTERN NORTH DAKOTA/GRAND FORKS ND
900 PM CDT WED SEP 20 2017

 **SATELLITE DATA USED TO AUGMENT SKY COVER AT AUTOMATED STATIONS**
 *****  WEATHER ACROSS EASTERN NORTH DAKOTA  *****

CITY           SKY/WX    TMP DP  RH WIND       PRES   REMARKS
GRAND FORKS    FAIR      60  46  59 S12       29.78R
GRAND FRKS AFB FAIR      57  44  61 S9        29.78R
DEVILS LAKE    FAIR      61  41  47 S13       29.74R
FARGO          FAIR      64  42  44 S8        29.82R
WAHPETON ARPT  FAIR      55  43  62 SE7       29.86S
$$

 ***** WEATHER ACROSS CENTRAL AND WESTERN NORTH DAKOTA  *****

CITY           SKY/WX    TMP DP  RH WIND       PRES   REMARKS
BISMARCK       FAIR      52  40  63 SE8       29.73R
MINOT          FAIR      52  36  54 SE7       29.65R
JAMESTOWN      FAIR      53  43  68 S6        29.79R
MINOT AFB      FAIR      51  37  57 S7        29.63R
GARRISON         N/A     53  42  66 SE8       29.68R
WILLISTON      FAIR      48  40  73 CALM      29.61R
DICKINSON      FAIR      50  33  52 S7        29.67S
HETTINGER      FAIR      51  35  54 SE5       29.74R
$$

 *****  OTHER AIRPORT OBSERVATIONS IN OUR AREA  *****

CITY           SKY/WX    TMP DP  RH WIND       PRES   REMARKS
WALHALLA       FAIR     N/A N/A N/A S8        29.72R
GRAFTON AIRPOR FAIR      52  43  71 S9        29.78R
VALLEY CITY AR FAIR      55  45  67 S7        29.83R
CANDO          FAIR      55  41  58 S9G15     29.74R
CAVALIER APRT  FAIR      55  41  58 S7        29.73R
GWINNER        CLEAR     52  46  82 CALM      29.83S
SHEYENNE NWR     N/A     54  44  70 S6        29.95S
ROLLA          FAIR      52  39  62 S10       29.70R
 ***** THE ABOVE OBSERVATIONS ARE NON NWS ARE NOT QUALITY
       CONTROLLED AND MAY MIS-REPORT RAIN FOR SNOW...
$$

  *****  WEATHER ACROSS NORTHERN MINNESOTA  *****

CITY           SKY/WX    TMP DP  RH WIND       PRES   REMARKS
FLAG ISLAND    FAIR      61  52  72 S12       29.77F
WARROAD        FAIR      55  46  71 S6        29.81R
ROSEAU         FAIR      55  46  71 S8        29.80R
HALLOCK        CLOUDY    52  45  76 SE8       29.76R
THF RVR FALLS  FAIR      56  43  61 S9        29.83R
BAUDETTE       FAIR      55  44  66 S7        29.82R
WASKISH        FAIR      54  45  71 S3        29.86S
CROOKSTON      FAIR      61  45  55 S12       29.82R
STEPHEN NDAWN    N/A     61  43  51 S8          N/A
GREENBUSH NDAW   N/A     55  45  67 S3          N/A
$$
  *****  WEATHER ACROSS CENTRAL AND WEST MINNESOTA  *****

CITY           SKY/WX    TMP DP  RH WIND       PRES   REMARKS
FOSSTON        FAIR      54  45  71 S8        29.86R
BEMIDJI        FAIR      54  44  67 S5        29.88R
PARK RAPIDS    FAIR      58  47  66 CALM      29.88R
ELBOW LAKE     FAIR      55  45  68 CALM      29.89R
WADENA         FAIR      52  46  82 CALM      29.90R
DETROIT LAKES  FAIR      55  46  71 SE5       29.89R
MOORHEAD       FAIR      57  45  62 SE6       29.85R
FERGUS FALLS   FAIR      57  46  67 S7        29.88R
MORRIS MN      FAIR      55  46  71 SE6       29.89R
STAPLES        NOT AVBL
$$
  *****  WEATHER ELSEWHERE ACROSS MINNESOTA  *****

CITY           SKY/WX    TMP DP  RH WIND       PRES   REMARKS
DULUTH         FAIR      57  47  69 NW6       29.89R
INTRNTL FALLS  FAIR      48  43  82 CALM      29.86R
ELY            FAIR      48  48 100 CALM      29.90R
CLOQUET        FAIR      48  45  87 CALM      29.91R
WHEATON        FAIR      55  45  67 SE8       29.89R
BRAINERD       FAIR      52  49  89 CALM      29.90R
HIBBING        FAIR      46  46 100 NW3       29.89R
ALEXANDRIA     FAIR      56  48  74 S5        29.91R
SAINT CLOUD    FAIR      51  50  96 CALM      29.90R
MINNEAPOLIS    FAIR      66  52  60 NW5       29.89R
$$

  *****  WEATHER ACROSS SOUTH DAKOTA  *****

CITY           SKY/WX    TMP DP  RH WIND       PRES   REMARKS
SIOUX FALLS    FAIR      57  48  72 CALM      29.90R
BROOKINGS      FAIR      60  46  59 S9        29.91R
WATERTOWN      FAIR      56  46  69 SE5       29.87R
HURON          FAIR      64  46  52 S13       29.84R
SISSETON         N/A     53  47  79 S5        29.85R
ABERDEEN       FAIR      54  43  66 SE9       29.81R
MITCHELL       FAIR      62  47  57 S9        29.87R
PIERRE         FAIR      61  33  35 SE9       29.76R
MOBRIDGE       FAIR      59  37  44 E12       29.75R
RAPID CITY     CLEAR     61  30  31 CALM      29.77R
$$

  *****  SOME WEATHER IN NEARBY STATES *****

CITY           SKY/WX    TMP DP  RH WIND       PRES   REMARKS
GLASGOW MT     FAIR      57  34  41 W3        29.56R
GREAT FALLS MT FAIR      50  31  48 SW17G30   29.59R
CHEYENNE WY    FAIR      61  28  28 SE10      29.90R
SCOTTSBLUFF NE FAIR      60  39  45 E10       29.82R
OMAHA NE       FAIR      66  55  67 N8        29.87R
DES MOINES IA  FAIR      77  60  55 N7        29.84R
DAVENPORT IA   MOCLDY    72  65  78 S14       29.92R
CHICAGO IL     FAIR      83  66  56 S12       29.86R
EAU CLAIRE WI  FAIR      61  55  81 NW5       29.87R
LA CROSSE WI   CLEAR     70  63  78 N3          N/A
$$

  *****  SOME NATIONAL WEATHER *****

CITY           SKY/WX    TMP DP  RH WIND       PRES   REMARKS
LA GUARDIA NY  MOCLDY    76  65  68 N12       29.91S
RALEIGH NC     FAIR      74  69  85 CALM      30.00R
ATLANTA GA     FAIR      78  67  68 N7        30.04R
NEW ORLEANS LA MOCLDY    75  74  96 CALM      29.99S
OKLAHOMA CITY  FAIR      83  71  67 SE13      29.82R
ALBUQUERQUE NM FAIR      75  21  13 S8        29.96R
SALT LAKE CITY CLOUDY    71  39  31 N13       29.59F
LOS ANGELES CA FAIR      69  64  84 W10       29.84F
BOISE ID       CLOUDY    51  43  74 S7        29.72F
SEATTLE WA     MOCLDY    54  47  77 S3        29.79R
$$

*** WEATHER ACROSS MANITOBA...SASKATCHEWAN AND ONTARIO ***
                ***ONTARIO***

CITY           SKY/WX    TMP DP  RH WIND       PRES   REMARKS
GERALDTON      CLOUDY    63  61  94 SW10      29.83R FOG
THUNDER BAY    CLEAR     54  54 100 W2        29.85R
SIOUX LOOKOUT  CLEAR     52  48  87 S5        29.84R
TORONTO        CLEAR     72  59  64 E5        30.03S
BIG TROUT LK   CLEAR     55  54  94 SW8       29.68R
PICKLE LAKE    CLEAR     52  52 100 SW8       29.80R
DRYDEN         CLEAR     54  45  71 S8        29.84R
KENORA         CLEAR     55  45  67 S7        29.79
$$
                *** MANITOBA***

CITY           SKY/WX    TMP DP  RH WIND       PRES   REMARKS
BRANDON        PTCLDY    54  39  58 S8        29.62R
DAUPHIN        CLEAR     55  39  54 SW13      29.55R
ISLAND LAKE    PTCLDY    55  43  62 S9        29.57
PILOT MOUND      N/A     50  39  66 S10         N/A
THE PAS        MOCLDY    50  41  71 S8        29.39R
THOMPSON       LGT RAIN  48  46  93 S12G24    29.33R
WINNIPEG       PTCLDY    59  41  51 S9        29.69R
LYNN LAKE      LGT RAIN  43  43 100 NE15G23   29.29S FOG
CHURCHILL      LGT RAIN  43  43 100 E29G39    29.62F FOG
GILLAM         PTCLDY    50  48  93 S10       29.46R
$$
                ***SASKATCHEWAN***

CITY           SKY/WX    TMP DP  RH WIND       PRES   REMARKS
ESTEVAN        MOCLDY    50  36  57 S6        29.59R
KINDERSLEY     PTCLDY    43  32  65 W6        29.45R
LLOYDMINSTER   MOCLDY    43  37  81 W6        29.41R
PRINCE ALBERT  MOCLDY    43  37  81 N6        29.41R
REGINA         PTCLDY    46  32  57 S10       29.51R
YORKTON        CLEAR     55  36  47 S8        29.51R
N. BATTLEFORD  CLEAR     50  32  50 W9        29.43R
LA RONGE       LGT RAIN  46  45  93 W17G25    29.33R
SASKATOON      PTCLDY    45  34  65 SW7       29.42R
SWIFT CURRENT  CLOUDY    46  23  39 S9        29.47R
$$
NOTE: THESE ARE AUTOMATED STATIONS WITH LIMITED QUALITY CONTROL
      "FAIR" INDICATES FEW OR NO CLOUDS BELOW 12,000 FEET WITH NO
      SIGNIFICANT WEATHER AND/OR OBSTRUCTIONS TO VISIBILITY.
      SKY/WX - SKY CONDITION AND SIGNIFICANT WEATHER.
      TMP - AIR TEMPERATURE.    DP   - DEWPOINT TEMPERATURE.
      RH  - RELATIVE HUMIDITY.  PRES - PRESSURE.
      HX  - HEAT INDEX.         WCI  - WIND CHILL INDEX.
$




USA.gov is the U.S. government's official web portal to all federal, state and local government web resources and services.